Voltar ao catálogo

FENGYUN 1C DEB

AtivoSSO
NORAD 31560·DEBRIS·🇨🇳 China

Lançado May 10, 1999 de Taiyuan Satellite Launch Center

Loading…

Próximas Passagens (próximas 24 horas)

TLE

AtualizadoSource: Space-Track

Época: Sep 13, 2026, 07:52 UTC

1 31560U 99025BZB 26256.32790646  .00000033  00000-0  32592-4 0  9999
2 31560  98.5570 289.4853 0119809 231.6711 127.3649 14.21289970  5188

Acompanhe FENGYUN 1C DEB em tempo real com AllMySat

Download on the App Store